GFSMW_prec_snow_261.txt.gz
Snowfall_Accumulation
0.0 0.0 0.0 0.0 0.0 0.0 0.0 0.0 0.0 0.0 0.0 0.0 0.0 0.0 0.0 0.0 0.0 0.0 0.0 0.0 0.0 0.0 0.0 0.0 0.0 0.0 0.0 0.0 0.0 0.0 0.0 0.0 0.0 0.0 0.0 0.0 0.0 0.0 0.0 0.0 0.0 0.0 0.0
0.0 0.0 0.0 0.0 0.0 0.0 0.0 0.0 0.0 0.0 0.0 0.0 0.0 0.0 0.0 0.0 0.0 0.0 0.0 0.0 0.0 0.0 0.0 0.0 0.0 0.0 0.0 0.0 0.0 0.0 0.0 0.0 0.0 0.0 0.0 0.0 0.0 0.0 0.0 0.0 0.0 0.0 0.0
0.0 0.0 0.0 0.0 0.0 0.0 0.0 0.0 0.0 0.0 0.0 0.0 0.0 0.0 0.0 0.0 0.0 0.0 0.0 0.0 0.0 0.0 0.0 0.0 0.0 0.0 0.0 0.0 0.0 0.0 0.0 0.0 0.0 0.0 0.0 0.0 0.0 0.0 0.0 0.0 0.0 0.0 0.0
0.0 0.0 0.0 0.0 0.0 0.0 0.0 0.0 0.0 0.0 0.0 0.0 0.0 0.0 0.0 0.0 0.0 0.0 0.0 0.0 0.0 0.0 0.0 0.0 0.0 0.0 0.0 0.0 0.0 0.0 0.0 0.0 0.0 0.0 0.0 0.0 0.0 0.0 0.0 0.0 0.0 0.0 0.0
0.0 0.0 0.0 0.0 0.0 0.0 0.0 0.0 0.0 0.0 0.0 0.0 0.0 0.0 0.0 0.0 0.0 0.0 0.0 0.0 0.0 0.0 0.0 0.0 0.0 0.0 0.0 0.0 0.0 0.0 0.0 0.0 0.0 0.0 0.0 0.0 0.0 0.0 0.0 0.0 0.0 0.0 0.0
0.0 0.0 0.0 0.0 0.0 0.0 0.0 0.0 0.0 0.0 0.0 0.0 0.0 0.0 0.0 0.0 0.0 0.0 0.0 0.0 0.0 0.0 0.0 0.0 0.0 0.0 0.0 0.0 0.0 0.0 0.0 0.0 0.0 0.0 0.0 0.0 0.0 0.0 0.0 0.0 0.0 0.0 0.0
0.0 0.0 0.0 0.0 0.0 0.0 0.0 0.0 0.0 0.0 0.0 0.0 0.0 0.0 0.0 0.0 0.0 0.0 0.0 0.0 0.0 0.0 0.0 0.0 0.0 0.0 0.0 0.0 0.0 0.0 0.0 0.0 0.0 0.0 0.0 0.0 0.0 0.0 0.0 0.0 0.0 0.0 0.0
0.0 0.0 0.0 0.0 0.0 0.0 0.0 0.0 0.0 0.0 0.0 0.0 0.0 0.0 0.0 0.0 0.0 0.0 0.0 0.0 0.0 0.0 0.0 0.0 0.0 0.0 0.0 0.0 0.0 0.0 0.0 0.0 0.0 0.0 0.0 0.0 0.0 0.0 0.0 0.0 0.0 0.0 0.0
0.0 0.0 0.0 0.0 0.0 0.0 0.0 0.0 0.0 0.0 0.0 0.0 0.0 0.0 0.0 0.0 0.0 0.0 0.0 0.0 0.0 0.0 0.0 0.0 0.0 0.0 0.0 0.0 0.0 0.0 0.0 0.0 0.0 0.0 0.0 0.0 0.0 0.0 0.0 0.0 0.0 0.0 0.0
0.0 0.0 0.0 0.0 0.0 0.0 0.0 0.0 0.0 0.0 0.0 0.0 0.0 0.0 0.0 0.0 0.0 0.0 0.0 0.0 0.0 0.0 0.0 0.0 0.0 0.0 0.0 0.0 0.0 0.0 0.0 0.0 0.0 0.0 0.0 0.0 0.0 0.0 0.0 0.0 0.0 0.0 0.0
0.0 0.0 0.0 0.0 0.0 0.0 0.0 0.0 0.0 0.0 0.0 0.0 0.0 0.0 0.0 0.0 0.0 0.0 0.0 0.0 0.0 0.0 0.0 0.0 0.0 0.0 0.0 0.0 0.0 0.0 0.0 0.0 0.0 0.0 0.0 0.0 0.0 0.0 0.0 0.0 0.0 0.2 0.9
0.5 0.1 0.0 0.0 0.0 0.0 0.0 0.0 0.0 0.0 0.0 0.0 0.0 0.0 0.0 0.0 0.0 0.0 0.0 0.0 0.0 0.0 0.0 0.0 0.0 0.0 0.0 0.0 0.0 0.0 0.0 0.0 0.0 0.0 0.0 0.0 0.0 0.0 0.0 0.0 0.4 1.0 0.5
0.5 0.3 0.0 0.0 0.0 0.0 0.0 0.0 0.0 0.0 0.0 0.0 0.0 0.0 0.0 0.0 0.0 0.0 0.0 0.0 0.0 0.0 0.0 0.0 0.0 0.0 0.0 0.0 0.0 0.0 0.0 0.0 0.0 0.0 0.0 0.0 0.0 0.1 0.0 1.5 0.8 0.3 1.3
1.6 0.0 0.0 0.0 0.0 0.0 0.0 0.0 0.0 0.0 0.0 0.0 0.0 0.0 0.0 0.0 0.0 0.0 0.0 0.0 0.0 0.0 0.0 0.0 0.0 0.0 0.0 0.0 0.0 0.0 0.0 0.0 0.0 0.0 0.0 0.0 0.6 0.3 0.9 0.6 1.1 0.8 1.0
3.4 2.3 0.0 0.0 0.0 0.0 0.0 0.0 0.0 0.0 0.0 0.0 0.0 0.0 0.0 0.0 0.0 0.0 0.0 0.0 0.0 0.0 0.0 0.0 0.0 0.0 0.0 0.0 0.0 0.0 0.0 0.1 0.4 0.1 2.2 1.8 1.7 1.1 1.6 1.2 0.6 0.7 0.4
4.1 2.1 0.8 0.0 0.0 0.0 0.0 0.0 0.0 0.0 0.0 0.0 0.0 0.0 0.0 0.0 0.0 0.0 0.0 0.0 0.0 0.0 0.0 0.0 0.0 0.0 0.0 0.0 0.0 0.0 0.0 0.5 2.8 3.0 2.7 1.6 1.0 0.5 0.0 0.1 0.4 0.6 1.7
4.9 1.4 0.0 0.0 0.0 0.0 0.0 0.0 0.0 0.0 0.0 0.0 0.0 0.0 0.0 0.0 0.0 0.0 0.0 0.0 0.0 0.0 0.0 0.0 0.0 3.1 0.0 0.0 0.0 3.0 3.4 3.3 2.3 1.7 1.1 1.0 0.3 0.4 0.3 0.0 0.4 1.8 2.9
5.8 1.9 1.0 0.0 0.0 0.0 0.0 0.0 0.0 0.0 0.0 0.0 0.0 0.0 0.4 0.0 0.0 0.3 0.9 0.7 0.0 1.2 0.6 0.8 6.6 6.9 1.4 2.4 5.3 3.9 2.4 0.9 1.0 0.5 0.2 0.0 0.1 0.1 0.4 0.6 3.2 1.7 0.1
5.7 3.1 0.0 0.0 0.0 0.0 0.0 0.0 0.0 0.0 0.0 0.5 1.1 0.0 1.0 0.5 0.9 3.8 3.0 7.1 3.5 9.8 6.8 4.9 3.8 2.9 2.2 0.0 0.5 0.4 0.2 0.1 0.0 0.0 0.0 0.3 0.2 0.1 1.1 3.5 2.2 0.2 0.2
4.5 3.6 0.6 0.0 0.0 0.0 0.0 0.0 0.0 0.0 0.0 0.0 0.0 0.0 0.0 0.1 2.5 6.5 5.9 5.0 5.6 6.1 4.6 2.9 1.6 1.0 0.5 0.2 0.0 0.0 0.0 0.0 0.0 0.0 0.2 0.1 0.3 0.7 4.4 1.9 1.0 1.0 0.3
5.3 3.8 0.9 0.0 0.0 0.0 0.0 0.0 0.0 0.0 1.2 2.1 2.5 2.6 0.6 1.2 1.3 5.6 4.7 2.9 2.2 2.1 1.3 0.4 0.2 0.1 0.0 0.0 0.0 0.0 0.0 0.1 0.5 0.9 0.1 0.0 0.3 2.9 1.0 1.2 1.1 0.8 0.4
5.4 4.1 1.0 0.0 2.0 0.0 0.0 0.7 4.4 1.5 1.8 4.7 2.1 4.1 3.1 2.2 1.6 0.2 0.1 2.1 2.2 3.5 2.4 1.9 1.6 0.5 0.2 0.0 0.0 0.0 0.2 0.4 1.1 0.4 0.4 0.5 2.9 0.1 0.2 0.5 0.6 0.7 0.7
4.3 3.6 5.1 5.1 4.2 0.9 0.3 0.0 5.7 5.4 6.3 4.5 4.8 7.7 7.3 6.1 4.9 3.0 3.4 6.1 5.1 4.8 6.7 4.0 1.6 2.8 1.9 0.6 0.0 0.5 1.1 1.5 1.1 0.9 1.8 1.7 0.4 0.4 0.4 0.2 0.1 0.6 0.6
3.0 3.3 3.7 3.4 2.9 3.4 5.8 3.8 5.2 4.7 4.4 6.9 7.8 7.4 7.6 7.6 9.9 9.0 7.9 6.7 9.1 8.7 8.1 6.4 6.3 4.8 3.4 3.5 2.2 1.8 2.0 0.4 2.2 2.3 2.2 0.8 0.5 0.2 0.3 0.6 0.4 0.4 0.4
2.5 3.1 4.1 5.2 5.0 5.5 8.4 8.5 7.5 6.0 7.2 7.8 9.1 9.2 9.4 8.8 8.5 8.8 8.6 8.1 7.6 5.7 5.9 7.7 7.1 7.4 7.2 5.6 4.7 5.0 4.9 5.1 4.4 4.0 3.0 2.0 1.1 0.5 0.6 0.8 0.5 0.4 0.1
3.0 2.8 4.3 5.5 7.2 8.0 8.5 9.6 9.3 7.2 6.6 7.1 7.3 6.8 6.9 6.8 5.8 5.7 7.4 7.9 6.7 6.5 7.0 7.3 7.8 8.3 6.9 6.5 6.7 6.4 6.1 4.6 3.8 3.9 3.6 2.9 2.2 1.9 0.9 1.0 1.1 0.7 0.6

GFSMW_prec_snow_264.txt.gz
Snowfall_Accumulation
0.0 0.0 0.0 0.0 0.0 0.0 0.0 0.0 0.0 0.0 0.0 0.0 0.0 0.0 0.0 0.0 0.0 0.0 0.0 0.0 0.0 0.0 0.0 0.0 0.0 0.0 0.0 0.0 0.0 0.0 0.0 0.0 0.0 0.0 0.0 0.0 0.0 0.0 0.0 0.0 0.0 0.0 0.0
0.0 0.0 0.1 0.0 0.0 0.0 0.0 0.0 0.0 0.0 0.0 0.0 0.0 0.0 0.0 0.0 0.0 0.0 0.0 0.0 0.0 0.0 0.0 0.0 0.0 0.0 0.0 0.0 0.0 0.0 0.0 0.0 0.0 0.0 0.0 0.0 0.0 0.0 0.0 0.0 0.0 0.0 0.0
0.0 0.0 0.1 0.1 0.0 0.0 0.0 0.0 0.0 0.0 0.0 0.0 0.0 0.0 0.0 0.0 0.0 0.0 0.0 0.0 0.0 0.0 0.0 0.0 0.0 0.0 0.0 0.0 0.0 0.0 0.0 0.0 0.0 0.0 0.0 0.0 0.0 0.0 0.0 0.0 0.0 0.0 0.0
0.0 0.0 0.0 0.1 0.0 0.0 0.0 0.0 0.0 0.0 0.0 0.0 0.0 0.0 0.0 0.0 0.0 0.0 0.0 0.0 0.0 0.0 0.0 0.0 0.0 0.0 0.0 0.0 0.0 0.0 0.0 0.0 0.0 0.0 0.0 0.0 0.0 0.0 0.0 0.0 0.0 0.0 0.0
0.0 0.0 0.0 0.1 0.0 0.0 0.0 0.0 0.0 0.0 0.0 0.0 0.0 0.0 0.0 0.0 0.0 0.0 0.0 0.0 0.0 0.0 0.0 0.0 0.0 0.0 0.0 0.0 0.0 0.0 0.0 0.0 0.0 0.0 0.0 0.0 0.0 0.0 0.0 0.0 0.0 0.0 0.0
0.0 0.0 0.0 0.0 0.0 0.0 0.0 0.0 0.0 0.0 0.0 0.0 0.0 0.0 0.0 0.0 0.0 0.0 0.0 0.0 0.0 0.0 0.0 0.0 0.0 0.0 0.0 0.0 0.0 0.0 0.0 0.0 0.0 0.0 0.0 0.0 0.0 0.0 0.0 0.0 0.0 0.0 0.0
0.0 0.0 0.0 0.0 0.0 0.0 0.0 0.0 0.0 0.0 0.0 0.0 0.0 0.0 0.0 0.0 0.0 0.0 0.0 0.0 0.0 0.0 0.0 0.0 0.0 0.0 0.0 0.0 0.0 0.0 0.0 0.0 0.0 0.0 0.0 0.0 0.0 0.0 0.0 0.0 0.0 0.0 0.0
0.0 0.0 0.0 0.0 0.0 0.0 0.0 0.0 0.0 0.0 0.0 0.0 0.0 0.0 0.0 0.0 0.0 0.0 0.0 0.0 0.0 0.0 0.0 0.0 0.0 0.0 0.0 0.0 0.0 0.0 0.0 0.0 0.0 0.0 0.0 0.0 0.0 0.0 0.0 0.0 0.0 0.0 0.0
0.0 0.0 0.0 0.0 0.0 0.0 0.0 0.0 0.0 0.0 0.0 0.0 0.0 0.0 0.0 0.0 0.0 0.0 0.0 0.0 0.0 0.0 0.0 0.0 0.0 0.0 0.0 0.0 0.0 0.0 0.0 0.0 0.0 0.0 0.0 0.0 0.0 0.0 0.0 0.0 0.0 0.0 0.0
0.0 0.1 0.0 0.0 0.0 0.0 0.0 0.0 0.0 0.0 0.0 0.0 0.0 0.0 0.0 0.0 0.0 0.0 0.0 0.0 0.0 0.0 0.0 0.0 0.0 0.0 0.0 0.0 0.0 0.0 0.0 0.0 0.0 0.0 0.0 0.0 0.0 0.0 0.0 0.0 0.0 0.0 0.0
0.3 0.1 0.0 0.0 0.0 0.0 0.0 0.0 0.0 0.0 0.0 0.0 0.0 0.0 0.0 0.0 0.0 0.0 0.0 0.0 0.0 0.0 0.0 0.0 0.0 0.0 0.0 0.0 0.0 0.0 0.0 0.0 0.0 0.0 0.0 0.0 0.0 0.0 0.0 0.0 0.0 0.2 0.9
0.7 0.3 0.0 0.0 0.0 0.0 0.0 0.0 0.0 0.0 0.0 0.0 0.0 0.0 0.0 0.0 0.0 0.0 0.0 0.0 0.0 0.0 0.0 0.0 0.0 0.0 0.0 0.0 0.0 0.0 0.0 0.0 0.0 0.0 0.0 0.0 0.0 0.0 0.0 0.0 0.4 1.0 0.5
1.6 0.9 0.1 0.0 0.0 0.0 0.0 0.0 0.0 0.0 0.0 0.0 0.0 0.0 0.0 0.0 0.0 0.0 0.0 0.0 0.0 0.0 0.0 0.0 0.0 0.0 0.0 0.0 0.0 0.0 0.0 0.0 0.0 0.0 0.0 0.0 0.0 0.1 0.0 1.5 0.8 0.3 1.3
3.2 0.5 0.0 0.0 0.0 0.0 0.0 0.0 0.0 0.0 0.0 0.0 0.0 0.0 0.0 0.0 0.0 0.0 0.0 0.0 0.0 0.0 0.0 0.0 0.0 0.0 0.0 0.0 0.0 0.0 0.0 0.0 0.0 0.0 0.0 0.0 0.6 0.3 0.9 0.6 1.1 0.8 1.0
5.0 2.6 0.2 0.0 0.0 0.0 0.0 0.0 0.0 0.0 0.0 0.0 0.0 0.0 0.0 0.0 0.0 0.0 0.0 0.0 0.0 0.0 0.0 0.0 0.0 0.0 0.0 0.0 0.0 0.0 0.0 0.1 0.4 0.1 2.2 1.8 1.7 1.1 1.6 1.2 0.6 0.7 0.4
8.0 4.2 1.8 0.0 0.0 0.0 0.0 0.0 0.0 0.0 0.0 0.0 0.0 0.0 0.0 0.0 0.0 0.0 0.0 0.0 0.0 0.0 0.0 0.0 0.0 0.0 0.0 0.0 0.0 0.0 0.0 0.5 2.8 3.0 2.7 1.6 1.0 0.5 0.0 0.1 0.4 0.6 1.7
9.1 4.1 0.8 0.0 0.0 0.0 0.0 0.0 0.0 0.0 0.0 0.0 0.0 0.0 0.0 0.0 0.0 0.0 0.0 0.0 0.0 0.0 0.0 0.0 0.0 3.1 0.0 0.0 0.0 3.0 3.4 3.3 2.3 1.7 1.1 1.0 0.3 0.4 0.3 0.0 0.4 1.8 2.9
7.8 3.5 2.6 0.0 0.0 0.0 0.0 0.0 0.0 0.0 0.0 0.0 0.0 0.0 0.4 0.0 0.0 0.3 0.9 0.7 0.0 1.2 0.6 0.8 6.6 6.9 1.4 2.4 5.3 3.9 2.4 0.9 1.0 0.5 0.2 0.0 0.1 0.1 0.4 0.6 3.2 1.7 0.1
7.8 4.9 3.1 0.0 0.0 0.0 0.0 0.0 0.0 0.0 0.0 0.5 1.1 0.0 1.0 0.5 0.9 3.8 3.0 7.1 3.5 9.8 6.8 4.9 3.8 2.9 2.2 0.0 0.5 0.4 0.2 0.1 0.0 0.0 0.0 0.3 0.2 0.1 1.1 3.5 2.2 0.2 0.2
6.3 8.3 4.8 0.0 0.0 0.0 0.0 0.0 0.0 0.0 0.0 0.0 0.0 0.0 0.0 0.1 2.5 6.5 5.9 5.0 5.6 6.1 4.6 2.9 1.6 1.0 0.5 0.2 0.0 0.0 0.0 0.0 0.0 0.0 0.2 0.1 0.3 0.7 4.4 1.9 1.0 1.0 0.3
6.3 7.4 5.9 0.0 0.0 0.0 0.0 0.0 0.0 0.0 1.2 2.1 2.5 2.6 0.6 1.2 1.3 5.6 4.7 2.9 2.2 2.1 1.3 0.4 0.2 0.1 0.0 0.0 0.0 0.0 0.0 0.1 0.5 0.9 0.1 0.0 0.3 2.9 1.0 1.2 1.1 0.8 0.4
5.8 6.5 4.7 0.0 2.0 0.0 0.0 0.7 4.4 1.5 1.8 4.7 2.1 4.1 3.1 2.2 1.6 0.2 0.1 2.1 2.2 3.5 2.4 1.9 1.6 0.5 0.2 0.0 0.0 0.0 0.2 0.4 1.1 0.4 0.4 0.5 2.9 0.1 0.2 0.5 0.6 0.7 0.7
4.9 4.4 6.8 5.1 4.2 0.9 0.3 0.0 5.7 5.4 6.3 4.5 4.8 7.7 7.3 6.1 4.9 3.0 3.4 6.1 5.1 4.8 6.7 4.0 1.6 2.8 1.9 0.6 0.0 0.5 1.1 1.5 1.1 0.9 1.8 1.7 0.4 0.4 0.4 0.2 0.1 0.6 0.6
4.2 4.5 4.6 4.2 2.9 3.4 5.8 3.8 5.2 4.7 4.4 6.9 7.8 7.4 7.6 7.6 9.9 9.0 7.9 6.7 9.1 8.7 8.1 6.4 6.3 4.8 3.4 3.5 2.2 1.8 2.0 0.4 2.2 2.3 2.2 0.8 0.5 0.2 0.3 0.6 0.4 0.4 0.4
4.6 5.1 5.4 6.2 5.0 5.5 8.4 8.5 7.5 6.0 7.2 7.8 9.1 9.2 9.4 8.8 8.5 8.8 8.6 8.1 7.6 5.7 5.9 7.7 7.1 7.4 7.2 5.6 4.7 5.0 4.9 5.1 4.4 4.0 3.0 2.0 1.1 0.5 0.6 0.8 0.5 0.4 0.1
4.0 4.5 6.1 6.9 8.0 9.2 8.5 9.6 9.3 7.2 6.6 7.1 7.3 6.8 6.9 6.8 5.8 5.7 7.4 7.9 6.7 6.5 7.0 7.3 7.8 8.3 6.9 6.5 6.7 6.4 6.1 4.6 3.8 3.9 3.6 2.9 2.2 1.9 0.9 1.2 1.2 0.7 0.6

GFSMW_prec_snow_267.txt.gz
Snowfall_Accumulation
0.0 0.0 0.0 0.0 0.0 0.0 0.0 0.0 0.0 0.0 0.0 0.0 0.0 0.0 0.0 0.0 0.0 0.0 0.0 0.0 0.0 0.0 0.0 0.0 0.0 0.0 0.0 0.0 0.0 0.0 0.0 0.0 0.0 0.0 0.0 0.0 0.0 0.0 0.0 0.0 0.0 0.0 0.0
0.0 0.0 0.1 0.0 0.0 0.0 0.0 0.0 0.0 0.0 0.0 0.0 0.0 0.0 0.0 0.0 0.0 0.0 0.0 0.0 0.0 0.0 0.0 0.0 0.0 0.0 0.0 0.0 0.0 0.0 0.0 0.0 0.0 0.0 0.0 0.0 0.0 0.0 0.0 0.0 0.0 0.0 0.0
0.0 0.0 0.1 0.1 0.1 0.1 0.1 0.0 0.0 0.0 0.0 0.0 0.0 0.0 0.0 0.0 0.0 0.0 0.0 0.0 0.0 0.0 0.0 0.0 0.0 0.0 0.0 0.0 0.0 0.0 0.0 0.0 0.0 0.0 0.0 0.0 0.0 0.0 0.0 0.0 0.0 0.0 0.0
0.0 0.0 0.0 0.1 0.0 0.1 0.1 0.0 0.0 0.0 0.0 0.0 0.0 0.0 0.0 0.0 0.0 0.0 0.0 0.0 0.0 0.0 0.0 0.0 0.0 0.0 0.0 0.0 0.0 0.0 0.0 0.0 0.0 0.0 0.0 0.0 0.0 0.0 0.0 0.0 0.0 0.0 0.0
0.0 0.0 0.0 0.1 0.0 0.0 0.0 0.0 0.0 0.0 0.0 0.0 0.0 0.0 0.0 0.0 0.0 0.0 0.0 0.0 0.0 0.0 0.0 0.0 0.0 0.0 0.0 0.0 0.0 0.0 0.0 0.0 0.0 0.0 0.0 0.0 0.0 0.0 0.0 0.0 0.0 0.0 0.0
0.0 0.0 0.0 0.0 0.0 0.0 0.0 0.0 0.0 0.0 0.0 0.0 0.0 0.0 0.0 0.0 0.0 0.0 0.0 0.0 0.0 0.0 0.0 0.0 0.0 0.0 0.0 0.0 0.0 0.0 0.0 0.0 0.0 0.0 0.0 0.0 0.0 0.0 0.0 0.0 0.0 0.0 0.0
0.0 0.0 0.0 0.0 0.0 0.0 0.0 0.0 0.0 0.0 0.0 0.0 0.0 0.0 0.0 0.0 0.0 0.0 0.0 0.0 0.0 0.0 0.0 0.0 0.0 0.0 0.0 0.0 0.0 0.0 0.0 0.0 0.0 0.0 0.0 0.0 0.0 0.0 0.0 0.0 0.0 0.0 0.0
0.0 0.0 0.0 0.0 0.0 0.0 0.0 0.0 0.0 0.0 0.0 0.0 0.0 0.0 0.0 0.0 0.0 0.0 0.0 0.0 0.0 0.0 0.0 0.0 0.0 0.0 0.0 0.0 0.0 0.0 0.0 0.0 0.0 0.0 0.0 0.0 0.0 0.0 0.0 0.0 0.0 0.0 0.0
0.0 0.0 0.0 0.0 0.0 0.0 0.0 0.0 0.0 0.0 0.0 0.0 0.0 0.0 0.0 0.0 0.0 0.0 0.0 0.0 0.0 0.0 0.0 0.0 0.0 0.0 0.0 0.0 0.0 0.0 0.0 0.0 0.0 0.0 0.0 0.0 0.0 0.0 0.0 0.0 0.0 0.0 0.0
0.0 0.1 0.0 0.0 0.0 0.0 0.0 0.0 0.0 0.0 0.0 0.0 0.0 0.0 0.0 0.0 0.0 0.0 0.0 0.0 0.0 0.0 0.0 0.0 0.0 0.0 0.0 0.0 0.0 0.0 0.0 0.0 0.0 0.0 0.0 0.0 0.0 0.0 0.0 0.0 0.0 0.0 0.0
0.5 0.1 0.0 0.0 0.0 0.0 0.0 0.0 0.0 0.0 0.0 0.0 0.0 0.0 0.0 0.0 0.0 0.0 0.0 0.0 0.0 0.0 0.0 0.0 0.0 0.0 0.0 0.0 0.0 0.0 0.0 0.0 0.0 0.0 0.0 0.0 0.0 0.0 0.0 0.0 0.0 0.2 0.9
0.9 0.5 0.1 0.0 0.0 0.0 0.0 0.0 0.0 0.0 0.0 0.0 0.0 0.0 0.0 0.0 0.0 0.0 0.0 0.0 0.0 0.0 0.0 0.0 0.0 0.0 0.0 0.0 0.0 0.0 0.0 0.0 0.0 0.0 0.0 0.0 0.0 0.0 0.0 0.0 0.4 1.0 0.5
1.9 1.2 0.2 0.0 0.0 0.0 0.0 0.0 0.0 0.0 0.0 0.0 0.0 0.0 0.0 0.0 0.0 0.0 0.0 0.0 0.0 0.0 0.0 0.0 0.0 0.0 0.0 0.0 0.0 0.0 0.0 0.0 0.0 0.0 0.0 0.0 0.0 0.1 0.0 1.5 0.8 0.3 1.3
4.7 1.7 0.4 0.1 0.0 0.0 0.0 0.0 0.0 0.0 0.0 0.0 0.0 0.0 0.0 0.0 0.0 0.0 0.0 0.0 0.0 0.0 0.0 0.0 0.0 0.0 0.0 0.0 0.0 0.0 0.0 0.0 0.0 0.0 0.0 0.0 0.6 0.3 0.9 0.6 1.1 0.8 1.0
6.2 3.1 0.5 0.1 0.0 0.0 0.0 0.0 0.0 0.0 0.0 0.0 0.0 0.0 0.0 0.0 0.0 0.0 0.0 0.0 0.0 0.0 0.0 0.0 0.0 0.0 0.0 0.0 0.0 0.0 0.0 0.1 0.4 0.1 2.2 1.8 1.7 1.1 1.6 1.2 0.6 0.7 0.4
9.1 4.9 2.0 0.1 0.0 0.0 0.0 0.0 0.0 0.0 0.0 0.0 0.0 0.0 0.0 0.0 0.0 0.0 0.0 0.0 0.0 0.0 0.0 0.0 0.0 0.0 0.0 0.0 0.0 0.0 0.0 0.5 2.8 3.0 2.7 1.6 1.0 0.5 0.0 0.1 0.4 0.6 1.7
10.8 5.2 1.2 0.7 0.4 0.0 0.0 0.0 0.0 0.0 0.0 0.0 0.0 0.0 0.0 0.0 0.0 0.0 0.0 0.0 0.0 0.0 0.0 0.0 0.0 3.1 0.0 0.0 0.0 3.0 3.4 3.3 2.3 1.7 1.1 1.0 0.3 0.4 0.3 0.0 0.4 1.8 2.9
9.7 4.6 3.0 0.8 0.5 0.0 0.0 0.0 0.0 0.0 0.0 0.0 0.0 0.0 0.4 0.0 0.0 0.3 0.9 0.7 0.0 1.2 0.6 0.8 6.6 6.9 1.4 2.4 5.3 3.9 2.4 0.9 1.0 0.5 0.2 0.0 0.1 0.1 0.4 0.6 3.2 1.7 0.1
10.7 7.1 4.3 0.4 0.0 0.0 0.0 0.0 0.0 0.0 0.0 0.5 1.1 0.0 1.0 0.5 0.9 3.8 3.0 7.1 3.5 9.8 6.8 4.9 3.8 2.9 2.2 0.0 0.5 0.4 0.2 0.1 0.0 0.0 0.0 0.3 0.2 0.1 1.1 3.5 2.2 0.2 0.2
11.1 12.9 6.7 0.0 0.0 0.0 0.0 0.0 0.0 0.0 0.0 0.0 0.0 0.0 0.0 0.1 2.5 6.5 5.9 5.0 5.6 6.1 4.6 2.9 1.6 1.0 0.5 0.2 0.0 0.0 0.0 0.0 0.0 0.0 0.2 0.1 0.3 0.7 4.4 1.9 1.0 1.0 0.3
10.3 11.9 8.3 0.0 0.0 0.0 0.0 0.0 0.0 0.0 1.2 2.1 2.5 2.6 0.6 1.2 1.3 5.6 4.7 2.9 2.2 2.1 1.3 0.4 0.2 0.1 0.0 0.0 0.0 0.0 0.0 0.1 0.5 0.9 0.1 0.0 0.3 2.9 1.0 1.2 1.1 0.8 0.4
10.4 12.1 7.9 2.5 2.0 0.0 0.0 0.7 4.4 1.5 1.8 4.7 2.1 4.1 3.1 2.2 1.6 0.2 0.1 2.1 2.2 3.5 2.4 1.9 1.6 0.5 0.2 0.0 0.0 0.0 0.2 0.4 1.1 0.4 0.4 0.5 2.9 0.1 0.2 0.5 0.6 0.7 0.7
9.3 9.8 11.0 9.1 4.2 0.9 0.3 0.0 5.7 5.4 6.3 4.5 4.8 7.7 7.3 6.1 4.9 3.0 3.4 6.1 5.1 4.8 6.7 4.0 1.6 2.8 1.9 0.6 0.0 0.5 1.1 1.5 1.1 0.9 1.8 1.7 0.4 0.4 0.4 0.2 0.1 0.6 0.6
6.8 8.7 8.9 7.8 2.9 3.4 5.8 3.8 5.2 4.7 4.4 6.9 7.8 7.4 7.6 7.6 9.9 9.0 7.9 6.7 9.1 8.7 8.1 6.4 6.3 4.8 3.4 3.5 2.2 1.8 2.0 0.4 2.2 2.3 2.2 0.8 0.5 0.2 0.3 0.6 0.4 0.4 0.4
5.6 7.1 8.6 9.3 6.6 5.5 8.4 8.5 7.5 6.0 7.2 7.8 9.1 9.2 9.4 8.8 8.5 8.8 8.6 8.1 7.6 5.7 5.9 7.7 7.1 7.4 7.2 5.6 4.7 5.0 4.9 5.1 4.4 4.0 3.0 2.0 1.1 0.5 0.6 0.8 0.5 0.4 0.1
4.6 5.2 7.4 8.8 10.5 9.2 8.5 9.6 9.3 7.2 6.6 7.1 7.3 6.8 6.9 6.8 5.8 5.7 7.4 7.9 6.7 6.5 7.0 7.3 7.8 8.3 6.9 6.5 6.7 6.4 6.1 4.6 3.8 3.9 3.6 2.9 2.2 1.9 0.9 1.2 1.2 0.8 0.6

GFSMW_prec_snow_270.txt.gz
Snowfall_Accumulation
0.0 0.0 0.0 0.0 0.0 0.0 0.0 0.0 0.0 0.0 0.0 0.0 0.0 0.0 0.0 0.0 0.0 0.0 0.0 0.0 0.0 0.0 0.0 0.0 0.0 0.0 0.0 0.0 0.0 0.0 0.0 0.0 0.0 0.0 0.0 0.0 0.0 0.0 0.0 0.0 0.0 0.0 0.0
0.0 0.0 0.1 0.0 0.0 0.0 0.0 0.0 0.0 0.0 0.0 0.0 0.0 0.0 0.0 0.0 0.0 0.0 0.0 0.0 0.0 0.0 0.0 0.0 0.0 0.0 0.0 0.0 0.0 0.0 0.0 0.0 0.0 0.0 0.0 0.0 0.0 0.0 0.0 0.0 0.0 0.0 0.0
0.0 0.0 0.1 0.1 0.1 0.1 0.1 0.0 0.0 0.0 0.0 0.0 0.0 0.0 0.0 0.0 0.0 0.0 0.0 0.0 0.0 0.0 0.0 0.0 0.0 0.0 0.0 0.0 0.0 0.0 0.0 0.0 0.0 0.0 0.0 0.0 0.0 0.0 0.0 0.0 0.0 0.0 0.0
0.0 0.0 0.0 0.1 0.0 0.1 0.1 0.0 0.0 0.0 0.0 0.0 0.0 0.0 0.0 0.0 0.0 0.0 0.0 0.0 0.0 0.0 0.0 0.0 0.0 0.0 0.0 0.0 0.0 0.0 0.0 0.0 0.0 0.0 0.0 0.0 0.0 0.0 0.0 0.0 0.0 0.0 0.0
0.0 0.0 0.0 0.1 0.0 0.0 0.0 0.0 0.0 0.2 0.0 0.0 0.0 0.0 0.0 0.0 0.0 0.0 0.0 0.0 0.0 0.0 0.0 0.0 0.0 0.0 0.0 0.0 0.0 0.0 0.0 0.0 0.0 0.0 0.0 0.0 0.0 0.0 0.0 0.0 0.0 0.0 0.0
0.0 0.0 0.0 0.0 0.0 0.0 0.0 0.0 0.0 0.3 0.0 0.0 0.0 0.0 0.0 0.0 0.0 0.0 0.0 0.0 0.0 0.0 0.0 0.0 0.0 0.0 0.0 0.0 0.0 0.0 0.0 0.0 0.0 0.0 0.0 0.0 0.0 0.0 0.0 0.0 0.0 0.0 0.0
0.0 0.0 0.0 0.0 0.0 0.0 0.0 0.0 0.0 0.3 0.0 0.0 0.0 0.0 0.0 0.0 0.0 0.0 0.0 0.0 0.0 0.0 0.0 0.0 0.0 0.0 0.0 0.0 0.0 0.0 0.0 0.0 0.0 0.0 0.0 0.0 0.0 0.0 0.0 0.0 0.0 0.0 0.0
0.0 0.0 0.0 0.0 0.0 0.0 0.0 0.0 0.0 0.2 0.0 0.0 0.0 0.0 0.0 0.0 0.0 0.0 0.0 0.0 0.0 0.0 0.0 0.0 0.0 0.0 0.0 0.0 0.0 0.0 0.0 0.0 0.0 0.0 0.0 0.0 0.0 0.0 0.0 0.0 0.0 0.0 0.0
0.0 0.0 0.0 0.0 0.0 0.0 0.0 0.0 0.0 0.1 0.0 0.0 0.0 0.0 0.0 0.0 0.0 0.0 0.0 0.0 0.0 0.0 0.0 0.0 0.0 0.0 0.0 0.0 0.0 0.0 0.0 0.0 0.0 0.0 0.0 0.0 0.0 0.0 0.0 0.0 0.0 0.0 0.0
0.0 0.1 0.0 0.0 0.0 0.0 0.0 0.0 0.0 0.0 0.0 0.0 0.0 0.0 0.0 0.0 0.0 0.0 0.0 0.0 0.0 0.0 0.0 0.0 0.0 0.0 0.0 0.0 0.0 0.0 0.0 0.0 0.0 0.0 0.0 0.0 0.0 0.0 0.0 0.0 0.0 0.0 0.0
0.6 0.2 0.0 0.0 0.0 0.0 0.0 0.0 0.0 0.0 0.0 0.0 0.0 0.0 0.0 0.0 0.0 0.0 0.0 0.0 0.0 0.0 0.0 0.0 0.0 0.0 0.0 0.0 0.0 0.0 0.0 0.0 0.0 0.0 0.0 0.0 0.0 0.0 0.0 0.0 0.0 0.2 0.9
1.1 0.7 0.1 0.0 0.0 0.0 0.0 0.0 0.0 0.0 0.0 0.0 0.0 0.0 0.0 0.0 0.0 0.0 0.0 0.0 0.0 0.0 0.0 0.0 0.0 0.0 0.0 0.0 0.0 0.0 0.0 0.0 0.0 0.0 0.0 0.0 0.0 0.0 0.0 0.0 0.4 1.0 0.5
2.1 1.2 0.2 0.0 0.1 0.0 0.0 0.0 0.0 0.0 0.0 0.0 0.0 0.0 0.0 0.0 0.0 0.0 0.0 0.0 0.0 0.0 0.0 0.0 0.0 0.0 0.0 0.0 0.0 0.0 0.0 0.0 0.0 0.0 0.0 0.0 0.0 0.1 0.0 1.5 0.8 0.3 1.3
5.3 2.1 0.7 0.4 0.1 0.0 0.0 0.0 0.0 0.0 0.0 0.0 0.0 0.0 0.0 0.0 0.0 0.0 0.0 0.0 0.0 0.0 0.0 0.0 0.0 0.0 0.0 0.0 0.0 0.0 0.0 0.0 0.0 0.0 0.0 0.0 0.6 0.3 0.9 0.6 1.1 0.8 1.0
6.9 3.8 1.3 0.5 0.1 0.0 0.0 0.0 0.0 0.0 0.0 0.0 0.0 0.0 0.0 0.0 0.0 0.0 0.0 0.0 0.0 0.0 0.0 0.0 0.0 0.0 0.0 0.0 0.0 0.0 0.0 0.1 0.4 0.1 2.2 1.8 1.7 1.1 1.6 1.2 0.6 0.7 0.4
9.6 5.2 2.9 0.4 0.1 0.0 0.0 0.0 0.0 0.0 0.0 0.0 0.0 0.0 0.0 0.0 0.0 0.0 0.0 0.0 0.0 0.0 0.0 0.0 0.0 0.0 0.0 0.0 0.0 0.0 0.0 0.5 2.8 3.0 2.7 1.6 1.0 0.5 0.0 0.1 0.4 0.6 1.7
12.0 6.4 2.7 1.2 0.5 0.0 0.0 0.0 0.0 0.0 0.0 0.0 0.0 0.0 0.0 0.0 0.0 0.0 0.0 0.0 0.0 0.0 0.0 0.0 0.0 3.1 0.0 0.0 0.0 3.0 3.4 3.3 2.3 1.7 1.1 1.0 0.3 0.4 0.3 0.0 0.4 1.8 2.9
10.7 6.6 5.4 2.1 1.1 0.0 0.0 0.0 0.0 0.0 0.0 0.0 0.0 0.0 0.4 0.0 0.0 0.3 0.9 0.7 0.0 1.2 0.6 0.8 6.6 6.9 1.4 2.4 5.3 3.9 2.4 0.9 1.0 0.5 0.2 0.0 0.1 0.1 0.4 0.6 3.2 1.7 0.1
11.9 9.4 8.2 3.5 1.5 0.6 0.0 0.0 0.0 0.0 0.0 0.5 1.1 0.0 1.0 0.5 0.9 3.8 3.0 7.1 3.5 9.8 6.8 4.9 3.8 2.9 2.2 0.0 0.5 0.4 0.2 0.1 0.0 0.0 0.0 0.3 0.2 0.1 1.1 3.5 2.2 0.2 0.2
12.7 15.3 9.9 1.7 1.4 0.0 0.0 0.0 0.0 0.0 0.0 0.0 0.0 0.0 0.0 0.1 2.5 6.5 5.9 5.0 5.6 6.1 4.6 2.9 1.6 1.0 0.5 0.2 0.0 0.0 0.0 0.0 0.0 0.0 0.2 0.1 0.3 0.7 4.4 1.9 1.0 1.0 0.3
13.2 14.1 9.8 1.3 0.0 0.0 0.0 0.0 0.0 0.0 1.2 2.1 2.5 2.6 0.6 1.2 1.3 5.6 4.7 2.9 2.2 2.1 1.3 0.4 0.2 0.1 0.0 0.0 0.0 0.0 0.0 0.1 0.5 0.9 0.1 0.0 0.3 2.9 1.0 1.2 1.1 0.8 0.4
13.8 15.5 10.2 5.1 2.0 0.0 0.0 0.7 4.4 1.5 1.8 4.7 2.1 4.1 3.1 2.2 1.6 0.2 0.1 2.1 2.2 3.5 2.4 1.9 1.6 0.5 0.2 0.0 0.0 0.0 0.2 0.4 1.1 0.4 0.4 0.5 2.9 0.1 0.2 0.5 0.6 0.7 0.7
14.0 15.4 15.2 12.6 4.2 0.9 0.3 0.0 5.7 5.4 6.3 4.5 4.8 7.7 7.3 6.1 4.9 3.0 3.4 6.1 5.1 4.8 6.7 4.0 1.6 2.8 1.9 0.6 0.0 0.5 1.1 1.5 1.1 0.9 1.8 1.7 0.4 0.4 0.4 0.2 0.1 0.6 0.6
12.5 15.9 12.9 10.8 2.9 3.4 5.8 3.8 5.2 4.7 4.4 6.9 7.8 7.4 7.6 7.6 9.9 9.0 7.9 6.7 9.1 8.7 8.1 6.4 6.3 4.8 3.4 3.5 2.2 1.8 2.0 0.4 2.2 2.3 2.2 0.8 0.5 0.2 0.3 0.6 0.4 0.4 0.4
10.5 13.5 14.6 14.2 9.6 5.5 8.4 8.5 7.5 6.0 7.2 7.8 9.1 9.2 9.4 8.8 8.5 8.8 8.6 8.1 7.6 5.7 5.9 7.7 7.1 7.4 7.2 5.6 4.7 5.0 4.9 5.1 4.4 4.0 3.0 2.0 1.1 0.5 0.6 0.8 0.5 0.4 0.1
7.8 10.4 13.3 13.1 13.6 9.2 8.5 9.6 9.3 7.2 6.6 7.1 7.3 6.8 6.9 6.8 5.8 5.7 7.4 7.9 6.7 6.5 7.0 7.3 7.8 8.3 6.9 6.5 6.7 6.4 6.1 4.6 3.8 3.9 3.6 2.9 2.2 1.9 0.9 1.2 1.2 0.8 0.6

GFSMW_prec_snow_273.txt.gz
Snowfall_Accumulation
0.0 0.0 0.0 0.0 0.0 0.0 0.0 0.0 0.0 0.0 0.0 0.0 0.0 0.0 0.0 0.0 0.0 0.0 0.0 0.0 0.0 0.0 0.0 0.0 0.0 0.0 0.0 0.0 0.0 0.0 0.0 0.0 0.0 0.0 0.0 0.0 0.0 0.0 0.0 0.0 0.0 0.0 0.0
0.0 0.0 0.1 0.0 0.0 0.0 0.0 0.0 0.0 0.0 0.0 0.0 0.0 0.0 0.0 0.0 0.0 0.0 0.0 0.0 0.0 0.0 0.0 0.0 0.0 0.0 0.0 0.0 0.0 0.0 0.0 0.0 0.0 0.0 0.0 0.0 0.0 0.0 0.0 0.0 0.0 0.0 0.0
0.0 0.0 0.1 0.1 0.1 0.1 0.1 0.0 0.0 0.0 0.0 0.0 0.0 0.0 0.0 0.0 0.0 0.0 0.0 0.0 0.0 0.0 0.0 0.0 0.0 0.0 0.0 0.0 0.0 0.0 0.0 0.0 0.0 0.0 0.0 0.0 0.0 0.0 0.0 0.0 0.0 0.0 0.0
0.0 0.0 0.0 0.1 0.0 0.1 0.1 0.0 0.0 0.0 0.0 0.0 0.0 0.0 0.0 0.0 0.0 0.0 0.0 0.0 0.0 0.0 0.0 0.0 0.0 0.0 0.0 0.0 0.0 0.0 0.0 0.0 0.0 0.0 0.0 0.0 0.0 0.0 0.0 0.0 0.0 0.0 0.0
0.0 0.0 0.0 0.1 0.0 0.0 0.0 0.0 0.0 0.2 0.0 0.0 0.0 0.0 0.0 0.0 0.0 0.0 0.0 0.0 0.0 0.0 0.0 0.0 0.0 0.0 0.0 0.0 0.0 0.0 0.0 0.0 0.0 0.0 0.0 0.0 0.0 0.0 0.0 0.0 0.0 0.0 0.0
0.0 0.0 0.0 0.0 0.0 0.0 0.0 0.0 0.0 0.3 0.0 0.0 0.0 0.0 0.0 0.0 0.0 0.0 0.0 0.0 0.0 0.0 0.0 0.0 0.0 0.0 0.0 0.0 0.0 0.0 0.0 0.0 0.0 0.0 0.0 0.0 0.0 0.0 0.0 0.0 0.0 0.0 0.0
0.0 0.0 0.0 0.0 0.0 0.0 0.0 0.0 0.0 0.3 0.0 0.0 0.0 0.0 0.0 0.0 0.0 0.0 0.0 0.0 0.0 0.0 0.0 0.0 0.0 0.0 0.0 0.0 0.0 0.0 0.0 0.0 0.0 0.0 0.0 0.0 0.0 0.0 0.0 0.0 0.0 0.0 0.0
0.0 0.0 0.0 0.0 0.0 0.0 0.0 0.0 0.0 0.2 0.0 0.0 0.0 0.0 0.0 0.0 0.0 0.0 0.0 0.0 0.0 0.0 0.0 0.0 0.0 0.0 0.0 0.0 0.0 0.0 0.0 0.0 0.0 0.0 0.0 0.0 0.0 0.0 0.0 0.0 0.0 0.0 0.0
0.0 0.0 0.0 0.0 0.0 0.0 0.0 0.0 0.0 0.1 0.0 0.0 0.0 0.0 0.0 0.0 0.0 0.0 0.0 0.0 0.0 0.0 0.0 0.0 0.0 0.0 0.0 0.0 0.0 0.0 0.0 0.0 0.0 0.0 0.0 0.0 0.0 0.0 0.0 0.0 0.0 0.0 0.0
0.0 0.1 0.0 0.0 0.0 0.0 0.0 0.0 0.0 0.0 0.0 0.0 0.0 0.0 0.0 0.0 0.0 0.0 0.0 0.0 0.0 0.0 0.0 0.0 0.0 0.0 0.0 0.0 0.0 0.0 0.0 0.0 0.0 0.0 0.0 0.0 0.0 0.0 0.0 0.0 0.0 0.0 0.0
0.7 0.2 0.0 0.0 0.0 0.0 0.0 0.0 0.0 0.0 0.0 0.0 0.0 0.0 0.0 0.0 0.0 0.0 0.0 0.0 0.0 0.0 0.0 0.0 0.0 0.0 0.0 0.0 0.0 0.0 0.0 0.0 0.0 0.0 0.0 0.0 0.0 0.0 0.0 0.0 0.0 0.2 0.9
1.2 0.7 0.2 0.0 0.0 0.0 0.0 0.0 0.0 0.0 0.0 0.0 0.0 0.0 0.0 0.0 0.0 0.0 0.0 0.0 0.0 0.0 0.0 0.0 0.0 0.0 0.0 0.0 0.0 0.0 0.0 0.0 0.0 0.0 0.0 0.0 0.0 0.0 0.0 0.0 0.4 1.0 0.5
2.5 1.5 0.2 0.0 0.1 0.0 0.0 0.0 0.0 0.0 0.0 0.0 0.0 0.0 0.0 0.0 0.0 0.0 0.0 0.0 0.0 0.0 0.0 0.0 0.0 0.0 0.0 0.0 0.0 0.0 0.0 0.0 0.0 0.0 0.0 0.0 0.0 0.1 0.0 1.5 0.8 0.3 1.3
5.9 2.6 0.9 0.4 0.1 0.1 0.0 0.0 0.0 0.0 0.0 0.0 0.0 0.0 0.0 0.0 0.0 0.0 0.0 0.0 0.0 0.0 0.0 0.0 0.0 0.0 0.0 0.0 0.0 0.0 0.0 0.0 0.0 0.0 0.0 0.0 0.6 0.3 0.9 0.6 1.1 0.8 1.0
7.1 4.1 1.7 0.7 0.3 0.1 0.1 0.1 0.0 0.0 0.0 0.0 0.0 0.0 0.0 0.0 0.0 0.0 0.0 0.0 0.0 0.0 0.0 0.0 0.0 0.0 0.0 0.0 0.0 0.0 0.0 0.1 0.4 0.1 2.2 1.8 1.7 1.1 1.6 1.2 0.6 0.7 0.4
10.0 5.6 3.3 0.7 0.3 0.2 0.0 0.0 0.0 0.0 0.0 0.0 0.0 0.0 0.0 0.0 0.0 0.0 0.0 0.0 0.0 0.0 0.0 0.0 0.0 0.0 0.0 0.0 0.0 0.0 0.0 0.5 2.8 3.0 2.7 1.6 1.0 0.5 0.0 0.1 0.4 0.6 1.7
12.9 7.9 3.7 2.2 1.0 0.2 0.0 0.0 0.0 0.0 0.0 0.0 0.0 0.0 0.0 0.0 0.0 0.0 0.0 0.0 0.0 0.0 0.0 0.0 0.0 3.1 0.0 0.0 0.0 3.0 3.4 3.3 2.3 1.7 1.1 1.0 0.3 0.4 0.3 0.0 0.4 1.8 2.9
12.1 8.7 6.4 2.8 1.3 0.1 0.0 0.0 0.0 0.0 0.0 0.0 0.0 0.0 0.4 0.0 0.0 0.3 0.9 0.7 0.0 1.2 0.6 0.8 6.6 6.9 1.4 2.4 5.3 3.9 2.4 0.9 1.0 0.5 0.2 0.0 0.1 0.1 0.4 0.6 3.2 1.7 0.1
14.2 12.2 9.9 4.5 1.8 0.8 0.0 0.0 0.0 0.0 0.0 0.5 1.1 0.0 1.0 0.5 0.9 3.8 3.0 7.1 3.5 9.8 6.8 4.9 3.8 2.9 2.2 0.0 0.5 0.4 0.2 0.1 0.0 0.0 0.0 0.3 0.2 0.1 1.1 3.5 2.2 0.2 0.2
15.1 18.4 11.4 2.6 1.6 0.0 0.0 0.0 0.0 0.0 0.0 0.0 0.0 0.0 0.0 0.1 2.5 6.5 5.9 5.0 5.6 6.1 4.6 2.9 1.6 1.0 0.5 0.2 0.0 0.0 0.0 0.0 0.0 0.0 0.2 0.1 0.3 0.7 4.4 1.9 1.0 1.0 0.3
15.3 17.3 11.4 2.4 0.7 0.0 0.0 0.0 0.0 0.0 1.2 2.1 2.5 2.6 0.6 1.2 1.3 5.6 4.7 2.9 2.2 2.1 1.3 0.4 0.2 0.1 0.0 0.0 0.0 0.0 0.0 0.1 0.5 0.9 0.1 0.0 0.3 2.9 1.0 1.2 1.1 0.8 0.4
15.5 18.8 13.3 7.2 5.0 3.7 0.0 0.7 4.4 1.5 1.8 4.7 2.1 4.1 3.1 2.2 1.6 0.2 0.1 2.1 2.2 3.5 2.4 1.9 1.6 0.5 0.2 0.0 0.0 0.0 0.2 0.4 1.1 0.4 0.4 0.5 2.9 0.1 0.2 0.5 0.6 0.7 0.7
16.5 19.7 20.9 16.5 4.2 0.9 0.3 0.0 5.7 5.4 6.3 4.5 4.8 7.7 7.3 6.1 4.9 3.0 3.4 6.1 5.1 4.8 6.7 4.0 1.6 2.8 1.9 0.6 0.0 0.5 1.1 1.5 1.1 0.9 1.8 1.7 0.4 0.4 0.4 0.2 0.1 0.6 0.6
15.3 19.6 16.3 12.4 2.9 3.4 5.8 3.8 5.2 4.7 4.4 6.9 7.8 7.4 7.6 7.6 9.9 9.0 7.9 6.7 9.1 8.7 8.1 6.4 6.3 4.8 3.4 3.5 2.2 1.8 2.0 0.4 2.2 2.3 2.2 0.8 0.5 0.2 0.3 0.6 0.4 0.4 0.4
14.1 17.3 17.7 16.4 9.6 5.5 8.4 8.5 7.5 6.0 7.2 7.8 9.1 9.2 9.4 8.8 8.5 8.8 8.6 8.1 7.6 5.7 5.9 7.7 7.1 7.4 7.2 5.6 4.7 5.0 4.9 5.1 4.4 4.0 3.0 2.0 1.1 0.5 0.6 0.8 0.5 0.4 0.1
12.1 15.0 17.4 17.0 16.1 10.7 8.5 9.6 9.3 7.2 6.6 7.1 7.3 6.8 6.9 6.8 5.8 5.7 7.4 7.9 6.7 6.5 7.0 7.3 7.8 8.3 6.9 6.5 6.7 6.4 6.1 4.6 3.8 3.9 3.6 2.9 2.2 1.9 0.9 1.2 1.2 0.8 0.6